This demonstration page uses our WeatherBlox Daily Observations layout. Learn more.

Left ArrowRight Arrow

Hourly Observations for January 19, 2017

Temp ( °F °C ) Dew Point ( °F °C ) Humidity (%) Winds ( mph kmh ) Pressure ( in mb ) Visibility ( mi km ) Precip ( " mm )
12:07 am 00:07 Cloudy with Mist and Fog 43 6.1 41 5 93 93 SE 12 19 29.97 1015 6 10 0.00 0.00
12:52 am 00:52 Cloudy with Mist and Fog 43 6.1 41 5 93 93 SSE 13 20 29.93 1013 6 10 0.00 0.00
1:52 am 01:52 Cloudy with Mist and Fog 43 6.1 42 5.6 97 97 SSE 12 19 29.92 1013 6 10 0.00 0.00
2:52 am 02:52 Cloudy 44 6.7 42 5.6 93 93 SSE 12 19 29.91 1013 7 11 0.00 0.00
3:52 am 03:52 Cloudy 44 6.7 42 5.6 93 93 SSE 10 17 29.88 1012 7 11 0.00 0.00
4:52 am 04:52 Cloudy 44 6.7 42 5.6 93 93 S 8 13 29.86 1011 7 11 0.00 0.00
5:18 am 05:18 Cloudy with Mist and Fog 45 7 43 6 93 93 SSE 6 9 29.88 1012 4 6 0.00 0.00
5:36 am 05:36 Cloudy with Mist and Fog 45 7 43 6 93 93 SSE 6 9 29.88 1012 5 8 0.00 0.00
5:45 am 05:45 Cloudy with Light Rain 44 6.7 43 6.1 96 96 SSE 8 13 29.88 1012 3 4 0.00 0.00
5:52 am 05:52 Cloudy with Light Rain 44 6.7 43 6.1 96 96 SSE 8 13 29.86 1011 3 5 0.00 0.00
6:07 am 06:07 Cloudy with Mist and Fog 44 6.7 43 6.1 96 96 SSE 9 15 29.88 1012 4 6 0.01 0.25
6:52 am 06:52 Cloudy with Mist and Fog 44 6.7 43 6.1 96 96 SSE 8 13 29.85 1011 4 6 0.01 0.25
7:00 am 07:00 Cloudy with Light Rain 45 7 43 6 93 93 SSE 7 11 29.88 1012 3 4 0.00 0.00
7:20 am 07:20 Cloudy with Light Rain 44 6.7 43 6.1 96 96 SE 9 15 29.85 1011 3 5 0.01 0.25
7:42 am 07:42 Cloudy with Mist and Fog 45 7 43 6 93 93 SSE 10 17 29.85 1011 3 4 0.00 0.00
7:52 am 07:52 Cloudy with Mist and Fog 44 6.7 43 6.1 96 96 S 8 13 29.85 1011 2 3 0.01 0.25
8:03 am 08:03 Cloudy with Mist and Fog 45 7 43 6 93 93 SSE 8 13 29.85 1011 2 3 0.00 0.00
8:11 am 08:11 Cloudy with Mist and Fog 44 6.7 43 6.1 96 96 SE 10 17 29.85 1011 2 2 0.00 0.00
8:35 am 08:35 Cloudy with Mist and Fog 44 6.7 43 6.1 96 96 SE 12 19 29.85 1011 3 4 0.00 0.00
8:52 am 08:52 Cloudy with Mist and Fog 44 6.7 43 6.1 96 96 SE 13 20 29.83 1010 6 10 0.00 0.00
9:52 am 09:52 Cloudy with Mist and Fog 46 7.8 44 6.7 93 93 SE 10 17 29.81 1010 5 8 0.00 0.00
10:42 am 10:42 Cloudy 48 9 46 8 94 94 SE 7 11 29.80 1009 9 14 0.00 0.00
10:52 am 10:52 Cloudy 48 8.9 46 7.8 93 93 SSE 8 13 29.80 1009 9 14 0.00 0.00
11:16 am 11:16 Cloudy 48 9 46 8 94 94 SSE 8 13 29.77 1008 8 13 0.00 0.00
11:52 am 11:52 Cloudy 49 9.4 47 8.3 93 93 S 7 11 29.78 1008 8 13 0.00 0.00
12:39 pm 12:39 Cloudy 50 10 47 8.3 89 89 SSE 6 9 29.71 1006 9 14 0.00 0.00
12:52 pm 12:52 Cloudy 51 10.6 48 8.9 89 89 S 6 9 29.71 1006 10 16 0.00 0.00
1:52 pm 13:52 Cloudy 51 10.6 48 8.9 89 89 S 3 6 29.69 1006 10 16 0.00 0.00
2:52 pm 14:52 Cloudy with Mist and Fog 51 10.6 49 9.4 92 92 SSE 6 9 29.67 1005 6 10 0.00 0.00
3:52 pm 15:52 Cloudy 53 11.7 50 10 89 89 S 6 9 29.65 1004 10 16 0.00 0.00
4:52 pm 16:52 Cloudy 53 11.7 50 10 89 89 S 5 7 29.64 1004 10 16 0.00 0.00
5:52 pm 17:52 Cloudy 52 11.1 49 9.4 89 89 ESE 3 6 29.63 1004 10 16 0.00 0.00
6:52 pm 18:52 Cloudy 51 10.6 49 9.4 92 92 Calm 29.62 1003 9 14 0.00 0.00
7:52 pm 19:52 Cloudy 51 10.6 49 9.4 92 92 ESE 9 15 29.60 1003 8 13 0.00 0.00
8:08 pm 20:08 Cloudy with Mist and Fog 52 11 50 10 94 94 SE 8 13 29.62 1003 3 5 0.00 0.00
8:16 pm 20:16 Cloudy with Mist and Fog 50 10 48 9 94 94 SSE 10 17 29.62 1003 2 3 0.00 0.00
8:26 pm 20:26 Cloudy with Mist and Fog 50 10 50 10 100 100 SE 9 15 29.62 1003 1 2 0.00 0.00
8:37 pm 20:37 Mostly Cloudy with Mist and Fog 50 10 50 10 100 100 SSE 9 15 29.62 1003 1 1 0.00 0.00
8:52 pm 20:52 Mostly Cloudy with Mist and Fog 50 10 50 10 100 100 SSE 10 17 29.60 1002 1 1 0.00 0.00
9:27 pm 21:27 Mostly Cloudy with Mist and Fog 50 10 50 10 100 100 SSW 12 19 29.62 1003 1 2 0.00 0.00
9:48 pm 21:48 Mostly Cloudy with Mist and Fog 50 10 50 10 100 100 SW 8 13 29.62 1003 1 1 0.00 0.00
9:52 pm 21:52 Mostly Cloudy with Mist and Fog 50 10 50 10 100 100 SW 10 17 29.62 1003 1 1 0.00 0.00
10:00 pm 22:00 Mostly Cloudy with Mist and Fog 50 10 48 9 94 94 SW 10 17 29.62 1003 1 2 0.00 0.00
10:18 pm 22:18 Mostly Cloudy with Mist and Fog 48 9 48 9 100 100 W 10 17 29.62 1003 1 1 0.00 0.00
10:36 pm 22:36 Cloudy with Mist and Fog 48 9 48 9 100 100 SW 8 13 29.65 1004 1 2 0.00 0.00
10:52 pm 22:52 Cloudy with Mist and Fog 48 8.9 48 8.9 100 100 SSW 6 9 29.63 1004 2 3 0.00 0.00
11:15 pm 23:15 Cloudy with Mist and Fog 48 8.9 47 8.3 96 96 S 6 9 29.62 1003 3 5 0.00 0.00
11:31 pm 23:31 Cloudy with Mist and Fog 48 8.9 47 8.3 96 96 S 5 7 29.62 1003 3 4 0.00 0.00
11:38 pm 23:38 Cloudy with Mist and Fog 48 9 46 8 94 94 S 5 7 29.62 1003 4 6 0.00 0.00
11:52 pm 23:52 Cloudy with Mist and Fog 48 8.9 47 8.3 96 96 SSE 5 7 29.62 1003 4 6 0.00 0.00

Powered by AerisWeather